This demonstration page uses our WeatherBlox Daily Observations layout. Learn more.

Left ArrowRight Arrow

40.97296, -117.73568

Hourly Observations for November 29, 2020

Temp ( °F °C ) Dew Point ( °F °C ) Humidity (%) Winds ( mph kmh ) Pressure ( in mb ) Visibility ( mi km ) Precip ( " mm )
12:56 am 00:56 Clear 21 -6.1 16 -8.9 81 81 SE 5 7 30.40 1029 10 16 0.00 0.00
1:56 am 01:56 Clear 18 -7.8 13 -10.6 81 81 SE 6 9 30.41 1030 10 16 0.00 0.00
2:56 am 02:56 Clear 18 -7.8 13 -10.6 81 81 SE 5 7 30.41 1030 10 16 0.00 0.00
3:56 am 03:56 Clear 16 -8.9 11 -11.7 80 80 S 5 7 30.41 1030 10 16 0.00 0.00
4:56 am 04:56 Clear 17 -8.3 12 -11.1 80 80 S 5 7 30.45 1031 10 16 0.00 0.00
5:56 am 05:56 Clear 17 -8.3 11 -11.7 77 77 SSE 6 9 30.47 1032 10 16 0.00 0.00
6:56 am 06:56 Sunny 16 -8.9 10 -12.2 77 77 SE 5 7 30.48 1032 10 16 0.00 0.00
7:56 am 07:56 Sunny 26 -3.3 18 -7.8 71 71 E 7 11 30.47 1032 10 16 0.00 0.00
8:56 am 08:56 Sunny 34 1.1 20 -6.7 56 56 ENE 7 11 30.44 1031 10 16 0.00 0.00
9:56 am 09:56 Sunny 38 3.3 21 -6.1 51 51 ENE 6 9 30.43 1031 10 16 0.00 0.00
10:56 am 10:56 Sunny 43 6.1 21 -6.1 42 42 ENE 5 7 30.41 1030 10 16 0.00 0.00
11:56 am 11:56 Sunny 46 7.8 21 -6.1 37 37 Calm 30.37 1028 10 16 0.00 0.00
12:56 pm 12:56 Sunny 50 10 20 -6.7 30 30 NNE 5 7 30.32 1027 10 16 0.00 0.00
1:56 pm 13:56 Sunny 51 10.6 19 -7.2 28 28 Calm 30.32 1027 10 16 0.00 0.00
2:56 pm 14:56 Sunny 50 10 22 -5.6 33 33 W 5 7 30.31 1026 10 16 0.00 0.00
3:56 pm 15:56 Sunny 44 6.7 20 -6.7 38 38 WSW 3 6 30.32 1027 10 16 0.00 0.00
4:56 pm 16:56 Clear 34 1.1 19 -7.2 54 54 Calm 30.35 1028 10 16 0.00 0.00
5:56 pm 17:56 Clear 31 -0.6 19 -7.2 61 61 Calm 30.36 1028 10 16 0.00 0.00
6:56 pm 18:56 Clear 26 -3.3 18 -7.8 71 71 SSE 6 9 30.38 1029 10 16 0.00 0.00
7:56 pm 19:56 Clear 26 -3.3 19 -7.2 75 75 SSE 7 11 30.36 1028 10 16 0.00 0.00
8:56 pm 20:56 Clear 24 -4.4 18 -7.8 77 77 SE 5 7 30.35 1028 10 16 0.00 0.00
9:56 pm 21:56 Clear 26 -3.3 18 -7.8 71 71 ESE 3 6 30.34 1027 10 16 0.00 0.00
10:56 pm 22:56 Clear 22 -5.6 17 -8.3 82 82 S 5 7 30.34 1027 10 16 0.00 0.00
11:56 pm 23:56 Clear 18 -7.8 13 -10.6 81 81 WSW 5 7 30.34 1028 10 16 0.00 0.00

Powered by AerisWeather